User: anonymous   Login
Location: *
(51.1248°S, 108.4023°W)
Time: 11:43:49
(UTC+00:00)
Language:

Cosmos 1821 Rocket - Orbit

View from above orbital plane
View from above orbital plane
View from above satellite
View from above satellite

Ground track
Ground track

The orbit data is extracted from the following two-line orbital elements,

1 17526U 87017B   21260.87218071  .00000077  00000-0  63293-4 0  9990
2 17526  82.9023 319.0462 0039049 294.0448  65.6624 13.76902578719765
Epoch (UTC): 17 September 2021 20:55:56
Eccentricity: 0.0039049
inclination: 82.9023°
perigee height: 946 km
apogee height: 1003 km
right ascension of ascending node: 319.0462°
argument of perigee: 294.0448°
revolutions per day: 13.76902578
mean anomaly at epoch: 65.6624°
orbit number at epoch: 71976

The dashed part of the orbit path shows where the satellite is in the earth's shadow,  

DLR